User: anonymous   Login
Location: Gro�sch�nbrunn
(49.5760°N, 11.8868°E)
Time: 14:42:45
(UTC+00:00)
Language:

Exosat Rocket - Orbit

View from above orbital plane
View from above orbital plane
View from above satellite
View from above satellite

Ground track
Ground track

The orbit data is extracted from the following two-line orbital elements,

1 14096U 83051B   20333.31419132  .00000681  00000-0  11744-2 0  9996
2 14096  72.2975 189.1174 1095291 340.2736  15.8842 12.09734321656273
Epoch (UTC): 28 November 2020 07:32:26
Eccentricity: 0.1095291
inclination: 72.2975°
perigee height: 759 km
apogee height: 2515 km
right ascension of ascending node: 189.1174°
argument of perigee: 340.2736°
revolutions per day: 12.09734321
mean anomaly at epoch: 15.8842°
orbit number at epoch: 65627

The dashed part of the orbit path shows where the satellite is in the earth's shadow,  

DLR